DW8013 Weather Reports


time (UTC)temp
C
wind
direction
speed
KPH
gust
KPH
rain 1hr
cm
rain 24hr
cm
rain mn
cm
humidity
%
barometer
mb
20190418121538 24 5 0.0 0.0 0.00 0.00 0.00 30 1022.2
20190418120105 24 5 0.0 0.0 0.00 0.00 0.00 31 1022.2
20190418114546 24 5 0.0 0.0 0.00 0.00 0.00 34 1022.4
20190418113018 23 5 0.0 0.0 0.00 0.00 0.00 38 1022.4
20190418111522 23 5 0.0 0.0 0.00 0.00 0.00 39 1022.5
20190418110017 22 5 0.0 0.0 0.00 0.00 0.00 42 1022.5
20190418104510 22 5 0.0 0.0 0.00 0.00 0.00 47 1022.5
20190418103006 21 5 0.0 0.0 0.00 0.00 0.00 49 1022.5
20190418101704 20 5 0.0 0.0 0.00 0.00 0.00 56 1022.7
20190418100147 19 5 0.0 0.0 0.00 0.00 0.00 58 1022.7
20190418094629 19 5 0.0 0.0 0.00 0.00 0.00 60 1022.9
20190418093120 18 5 0.0 0.0 0.00 0.00 0.00 63 1022.8
20190418091611 16 5 0.0 0.0 0.00 0.00 0.00 66 1022.8
20190418090111 16 336 0.0 0.0 0.00 0.00 0.00 69 1023.0
20190418084622 15 26 0.0 0.0 0.00 0.00 0.00 72 1023.0
20190418083135 14 26 0.0 0.0 0.00 0.00 0.00 74 1022.9
20190418081619 13 342 0.0 0.0 0.00 0.00 0.00 78 1022.9
20190418080114 12 5 0.0 0.0 0.00 0.00 0.00 82 1022.8
20190418074609 12 24 0.0 0.0 0.00 0.00 0.00 84 1022.8
20190418073023 11 61 0.0 0.0 0.00 0.00 0.00 86 1022.8
20190418071556 11 51 0.0 0.0 0.00 0.00 0.00 87 1022.7
20190418070007 11 42 0.0 0.0 0.00 0.00 0.00 88 1022.7
20190418064509 10 39 0.0 0.0 0.00 0.00 0.00 88 1022.6
20190418063003 10 39 0.0 0.0 0.00 0.00 0.00 89 1022.6
20190418061741 10 39 0.0 0.0 0.00 0.00 0.00 89 1022.5
20190418060217 9 24 0.0 0.0 0.00 0.00 0.00 89 1022.5
20190418054719 9 23 0.0 0.0 0.00 0.00 0.00 89 1022.3
20190418053209 8 20 0.0 0.0 0.00 0.00 0.00 89 1022.2
20190418051649 8 19 0.0 0.0 0.00 0.00 0.00 89 1022.1
20190418050132 8 25 0.0 0.0 0.00 0.00 0.00 88 1022.2
20190418044721 8 25 0.0 0.0 0.00 0.00 0.00 88 1022.0
20190418043141 8 25 0.0 0.0 0.00 0.00 0.00 88 1022.0
20190418041641 8 40 0.0 0.0 0.00 0.00 0.00 88 1021.8
20190418040146 8 41 0.0 0.0 0.00 0.00 0.00 88 1021.9
20190418034759 9 41 0.0 0.0 0.00 0.00 0.00 87 1021.8
20190418033140 9 42 0.0 0.0 0.00 0.00 0.00 87 1021.8
20190418031628 9 42 0.0 0.0 0.00 0.00 0.00 87 1021.9
20190418030143 9 42 0.0 0.0 0.00 0.00 0.00 87 1022.0
20190418024600 10 41 0.0 0.0 0.00 0.00 0.00 87 1021.9
20190418023057 10 46 0.0 0.0 0.00 0.00 0.00 86 1022.0
20190418021602 10 28 0.0 0.0 0.00 0.00 0.00 86 1022.1
20190418020054 10 31 0.0 0.0 0.00 0.00 0.00 86 1022.1
20190418014554 10 49 0.0 0.0 0.00 0.00 0.00 85 1022.0
20190418013125 10 41 0.0 0.0 0.00 0.00 0.00 85 1022.0
20190418011602 10 49 0.0 0.0 0.00 0.00 0.00 85 1022.0
20190418010050 10 47 0.0 0.0 0.00 0.00 0.00 85 1021.9
20190418004601 10 59 0.0 0.0 0.00 0.00 0.00 85 1022.0
20190418003055 10 42 0.0 0.0 0.00 0.00 0.00 85 1022.1
20190418001557 10 46 0.0 0.0 0.00 0.00 0.00 84 1022.3
20190418000107 10 44 0.0 0.0 0.00 0.00 0.00 84 1022.3
20190417234543 10 36 0.0 0.0 0.00 0.00 0.00 83 1022.3
20190417233050 11 28 0.0 0.0 0.00 0.00 0.00 84 1022.2
20190417231636 11 311 0.0 0.0 0.00 0.00 0.00 84 1022.1
20190417230039 11 336 0.0 0.0 0.00 0.00 0.00 84 1022.0
20190417224553 11 336 0.0 0.0 0.00 0.00 0.00 83 1022.1
20190417223053 11 336 0.0 0.0 0.00 0.00 0.00 83 1022.0
20190417221538 11 336 0.0 0.0 0.00 0.00 0.00 83 1022.0
20190417220027 11 334 0.0 0.0 0.00 0.00 0.00 83 1021.9
20190417214518 11 317 0.0 0.0 0.00 0.00 0.00 82 1021.9
20190417213022 11 317 0.0 0.0 0.00 0.00 0.00 82 1021.8
20190417211525 12 317 0.0 0.0 0.00 0.00 0.00 81 1021.8
20190417210019 12 224 0.0 0.0 0.00 0.00 0.00 80 1021.8
20190417204515 12 217 0.0 0.0 0.00 0.00 0.00 80 1021.7
20190417203032 12 252 0.0 0.0 0.00 0.00 0.00 80 1021.7
20190417201515 12 252 0.0 0.0 0.00 0.00 0.00 79 1021.8
20190417200019 13 252 0.0 0.0 0.00 0.00 0.00 78 1021.7
20190417194513 13 252 0.0 0.0 0.00 0.00 0.00 78 1021.7
20190417193008 13 252 0.0 0.0 0.00 0.00 0.00 77 1021.5
20190417191508 13 247 0.0 0.0 0.00 0.00 0.00 75 1021.3
20190417190008 13 193 0.0 0.0 0.00 0.00 0.00 74 1021.3
20190417184510 14 148 0.0 0.0 0.00 0.00 0.00 73 1021.1
20190417183005 15 194 0.0 0.0 0.00 0.00 0.00 71 1021.0
20190417181531 15 173 0.0 0.0 0.00 0.00 0.00 70 1020.8
20190417180019 15 209 0.0 0.0 0.00 0.00 0.00 69 1020.7
20190417174514 15 203 0.0 0.0 0.00 0.00 0.00 68 1020.5
20190417173016 16 144 0.0 0.0 0.00 0.00 0.00 68 1020.6
20190417171515 16 190 0.0 0.0 0.00 0.00 0.00 67 1020.6
20190417170006 16 198 0.0 0.0 0.00 0.00 0.00 65 1020.6
20190417164655 16 148 0.0 0.0 0.00 0.00 0.00 65 1020.6
20190417163150 16 212 0.0 0.0 0.00 0.00 0.00 63 1020.7
20190417161639 17 186 0.0 0.0 0.00 0.00 0.00 62 1020.7
20190417160255 17 174 0.0 0.0 0.00 0.00 0.00 62 1020.8
20190417154715 17 170 0.0 0.0 0.00 0.00 0.00 61 1020.7
20190417153335 18 137 0.0 0.0 0.00 0.00 0.00 56 1020.7
20190417151642 17 198 0.0 0.0 0.00 0.00 0.00 59 1020.7
20190417150138 17 178 0.0 0.0 0.00 0.00 0.00 59 1020.7
20190417144648 17 192 0.0 0.0 0.00 0.00 0.00 60 1020.7
20190417143128 17 224 0.0 0.0 0.00 0.00 0.00 60 1020.8
20190417141618 16 234 0.0 0.0 0.00 0.00 0.00 61 1020.9
20190417140131 17 206 0.0 0.0 0.00 0.00 0.00 60 1020.9
20190417134627 17 198 0.0 0.0 0.00 0.00 0.00 56 1020.9
20190417133123 17 183 0.0 0.0 0.00 0.00 0.00 57 1020.9
20190417131645 17 123 0.0 0.0 0.00 0.00 0.00 57 1020.9
20190417130135 18 5 0.0 0.0 0.00 0.00 0.00 58 1021.0
20190417124619 17 5 0.0 0.0 0.00 0.00 0.00 59 1021.0
20190417123120 17 165 0.0 0.0 0.00 0.00 0.00 60 1021.0